Hauptseite
METAR-TAF:

METAR-TAF

Flughäfen :

Plzeň, Tschechien

Breite: 49-40-31N, Länge: 13-16-29E, Höhe: 362 m

Beobachtung

Neuester Wetterbericht von vor 13 Minuten, um 03:17 UTC
Wind 1 kt aus unterschiedlichen Richtungen
Temperatur 4°C
Luftfeuchtigkeit 93%
Luftdruck 1024 hPa
Sichtweite: 4200 m
feuchter Dunst

METAR: LKLN 180317Z AUTO VRB01KT 4200 BR NCD 04/03 Q1024

Zeit: 05:30 (03:30 UTC)


TAF: fehlend

Wetterbeobachtungen und Prognosen von mehr als 4000 Flughäfen (METAR und TAF Bericht).

Die verfügbaren Stationen werden durch gelbe und rote Markierungen auf der Karte dargestellt.

Führen Sie die Maus auf sie, um den Namen der Station zu sehen.

Darauf klicken, um die Beobachtung von Wetterbeobachtungen und Prognosen zu sehen.

Um die Karte zu ändern : klicken Sie auf den grünen Tasten mit einem schwarzen Kreuz Zum Vergrößern, auf den grünen Button mit einem Gedankenstrich zu verkleinern, oder auf die grünen Pfeile für benachbarte Karten.


METAR-TAF: